Location: Unspecified
(59.6994°N, 0.0000°E)
Time: 09:06:03
(UTC+00:00)

Transit 2A Rocket - Visible Passes

Search period start: 04 April 2026 00:00
Search period end: 14 April 2026 00:00
Orbit: 584 x 899 km, 66.7° (Epoch: 28 March)

Date Brightness Start Highest point End Pass type
(mag) Time Alt. Az. Time Alt. Az. Time Alt. Az.
5 Apr 7.3 04:19:27 10° SSE 04:24:06 25° ESE 04:28:34 10° ENE visible
6 Apr 7.7 03:35:13 10° SSE 03:38:48 17° ESE 03:42:17 10° ENE visible
7 Apr 7.9 02:52:25 10° ESE 02:53:36 11° ESE 02:54:47 10° E visible
8 Apr 6.9 03:44:27 10° S 03:49:18 28° ESE 03:53:54 10° ENE visible
9 Apr 7.4 03:00:02 10° SSE 03:03:57 19° ESE 03:07:44 10° ENE visible
10 Apr 7.6 02:16:33 10° SE 02:18:43 12° ESE 02:20:51 10° E visible
10 Apr 6.2 03:54:29 10° SSW 03:59:58 43° SE 04:05:07 10° NE visible
11 Apr 6.6 03:09:29 10° S 03:14:29 30° ESE 03:19:14 10° ENE visible
12 Apr 7.1 02:24:53 10° SSE 02:29:06 21° ESE 02:33:08 10° ENE visible
12 Apr 5.5 04:05:01 10° SW 04:10:47 67° SE 04:16:08 10° NE visible
13 Apr 7.5 01:41:03 10° SE 01:43:50 14° ESE 01:46:32 10° ENE visible
13 Apr 5.9 03:19:37 10° SSW 03:25:11 48° SE 03:30:22 10° NE visible
